This is the latest recevied weather packets stored in our database for station/object SQ9MHX-13. If no packets are shown the sender has not sent any weather packets the latest 10 day(s).
| Time | Temp. | Humidity | Pressure | Rain* | Wind** | Luminosity | Snow |
|---|---|---|---|---|---|---|---|
| 1777680779 | 6.11° C | 80% | 987.7 hPa | - | 0 m/s | - | - |
| 1777680481 | 6.11° C | 82% | 987.6 hPa | - | 0 m/s | - | - |
| 1777680183 | 6.11° C | 81% | 987 hPa | - | 0 m/s | - | - |
| 1777679884 | 6.11° C | 80% | 986.7 hPa | - | 0 m/s | - | - |
| 1777679586 | 6.11° C | 80% | 987.2 hPa | - | 0 m/s | - | - |
| 1777679288 | 6.11° C | 80% | 987.3 hPa | - | 0 m/s | - | - |
| 1777678990 | 6.11° C | 81% | 987.3 hPa | - | 0 m/s | - | - |
| 1777678692 | 6.11° C | 82% | 987.6 hPa | - | 0 m/s | - | - |
| 1777678393 | 6.11° C | 80% | 987.1 hPa | - | 0 m/s | - | - |
| 1777678096 | 6.11° C | 79% | 986.5 hPa | - | 0 m/s | - | - |
| 1777677797 | 7.22° C | 80% | 986.5 hPa | - | 0 m/s | - | - |
| 1777677499 | 7.22° C | 79% | 986.7 hPa | - | 0 m/s | - | - |
| 1777677201 | 6.11° C | 77% | 986.5 hPa | - | 0 m/s | - | - |
| 1777676902 | 7.22° C | 78% | 986.4 hPa | - | 0 m/s | - | - |
| 1777676605 | 7.22° C | 77% | 986.2 hPa | - | 0 m/s | - | - |
| 1777676306 | 7.22° C | 79% | 985.7 hPa | - | 0 m/s | - | - |
| 1777676008 | 7.22° C | 76% | 985.4 hPa | - | 0 m/s | - | - |
| 1777675710 | 7.22° C | 78% | 985.8 hPa | - | 0 m/s | - | - |
| 1777675411 | 7.22° C | 75% | 985.6 hPa | - | 0 m/s | - | - |
| 1777675113 | 7.22° C | 78% | 985.4 hPa | - | 0 m/s | - | - |
| 1777674815 | 7.22° C | 76% | 985.1 hPa | - | 0 m/s | - | - |
| 1777674517 | 7.22° C | 77% | 985.3 hPa | - | 0 m/s | - | - |
| 1777674220 | 7.22° C | 76% | 984.9 hPa | - | 0 m/s | - | - |
| 1777673921 | 7.78° C | 76% | 984.6 hPa | - | 0 m/s | - | - |
| 1777673324 | 7.78° C | 75% | 984.8 hPa | - | 0 m/s | - | - |
* Rain since midnight (hover to see other rain measurements)
** Current wind speed in m/s (hover to see current wind gust speed)